WJA198 CYYC-CYLW

Flight info

Callsign WJA198
Flight time 1h 0m
Altitude 36000
Route BOTAG Q894 BINVO DCT ROBTI DCT NORIP NORIP5
Aircraft B737/M-SDE2E3FGHIRWXY/LB1

Departure

Time 2026-05-07 01:31
Airport Calgary International Airport (CYYC)

Arrival

Time 2026-05-07 02:32
Airport Kelowna International Airport (CYLW)
Time Latitude Longitude Altitude Speed Heading
2026-05-07 00:49 51.13232 -114.01375 3565 ft 0 kts 34°
2026-05-07 01:05 51.13222 -114.01386 3555 ft 4 kts 34°
2026-05-07 01:06 51.13200 -114.01410 3560 ft 4 kts 30°
2026-05-07 01:06 51.13177 -114.01427 3557 ft 4 kts 13°
2026-05-07 01:06 51.13153 -114.01428 3561 ft 4 kts 331°
2026-05-07 01:06 51.13142 -114.01413 3562 ft 1 kts 293°
2026-05-07 01:07 51.13141 -114.01408 3563 ft 0 kts 293°
2026-05-07 01:12 51.13141 -114.01409 3565 ft 1 kts 293°
2026-05-07 01:12 51.13152 -114.01472 3562 ft 8 kts 279°
2026-05-07 01:12 51.13148 -114.01570 3565 ft 9 kts 279°
2026-05-07 01:12 51.13146 -114.01672 3565 ft 10 kts 230°
2026-05-07 01:13 51.13094 -114.01753 3559 ft 11 kts 223°
2026-05-07 01:13 51.13025 -114.01789 3562 ft 11 kts 177°
2026-05-07 01:13 51.12940 -114.01788 3562 ft 13 kts 181°
2026-05-07 01:13 51.12846 -114.01787 3560 ft 14 kts 179°
2026-05-07 01:14 51.12746 -114.01800 3565 ft 15 kts 187°
2026-05-07 01:14 51.12640 -114.01798 3563 ft 16 kts 179°
2026-05-07 01:14 51.12603 -114.01692 3562 ft 13 kts 89°
2026-05-07 01:14 51.12604 -114.01549 3565 ft 13 kts 91°
2026-05-07 01:15 51.12604 -114.01376 3565 ft 18 kts 91°
2026-05-07 01:15 51.12609 -114.01150 3560 ft 22 kts 83°
2026-05-07 01:15 51.12613 -114.00887 3565 ft 25 kts 91°
2026-05-07 01:15 51.12615 -114.00597 3565 ft 28 kts 88°
2026-05-07 01:16 51.12615 -114.00294 3565 ft 29 kts 89°
2026-05-07 01:16 51.12618 -114.00008 3565 ft 25 kts 89°
2026-05-07 01:16 51.12625 -113.99737 3559 ft 24 kts 86°
2026-05-07 01:16 51.12628 -113.99510 3565 ft 20 kts 90°
2026-05-07 01:17 51.12534 -113.99438 3562 ft 17 kts 190°
2026-05-07 01:17 51.12454 -113.99446 3559 ft 17 kts 179°
2026-05-07 01:17 51.12298 -113.99439 3562 ft 17 kts 178°
2026-05-07 01:17 51.12185 -113.99434 3561 ft 16 kts 179°
2026-05-07 01:18 51.12076 -113.99442 3560 ft 15 kts 180°
2026-05-07 01:18 51.12027 -113.99442 3559 ft 9 kts 180°
2026-05-07 01:18 51.11953 -113.99442 3559 ft 12 kts 179°
2026-05-07 01:18 51.11865 -113.99444 3562 ft 13 kts 181°
2026-05-07 01:19 51.11766 -113.99446 3562 ft 15 kts 180°
2026-05-07 01:19 51.11659 -113.99447 3562 ft 15 kts 180°
2026-05-07 01:19 51.11556 -113.99447 3562 ft 14 kts 181°
2026-05-07 01:19 51.11464 -113.99448 3561 ft 14 kts 179°
2026-05-07 01:20 51.11432 -113.99448 3559 ft 14 kts 180°
2026-05-07 01:21 51.11385 -113.99446 3562 ft 13 kts 177°
2026-05-07 01:21 51.11295 -113.99436 3564 ft 13 kts 180°
2026-05-07 01:22 51.11207 -113.99437 3565 ft 13 kts 184°
2026-05-07 01:22 51.11129 -113.99411 3570 ft 9 kts 121°
2026-05-07 01:22 51.11124 -113.99387 3571 ft 9 kts 108°
2026-05-07 01:30 51.11120 -113.99288 3574 ft 10 kts 89°
2026-05-07 01:30 51.11121 -113.99173 3574 ft 11 kts 89°
2026-05-07 01:30 51.11139 -113.99052 3574 ft 12 kts 32°
2026-05-07 01:30 51.11288 -113.99035 3563 ft 49 kts 360°
2026-05-07 01:31 51.11899 -113.99027 3561 ft 123 kts 358°
2026-05-07 01:31 51.12916 -113.99042 3630 ft 175 kts
2026-05-07 01:31 51.14239 -113.99054 4105 ft 202 kts
2026-05-07 01:31 51.15699 -113.99042 4823 ft 215 kts
2026-05-07 01:32 51.17246 -113.99226 5358 ft 235 kts 342°
2026-05-07 01:32 51.18575 -114.00866 5857 ft 255 kts 302°
2026-05-07 01:32 51.19092 -114.03651 6463 ft 267 kts 270°
2026-05-07 01:32 51.18849 -114.06588 6872 ft 269 kts 256°
2026-05-07 01:33 51.18303 -114.09475 7008 ft 274 kts 253°
2026-05-07 01:33 51.17689 -114.12350 7089 ft 275 kts 252°
2026-05-07 01:33 51.17066 -114.15250 7884 ft 276 kts 252°
2026-05-07 01:33 51.16455 -114.18147 8987 ft 276 kts 253°
2026-05-07 01:34 51.15857 -114.21033 9952 ft 278 kts 254°
2026-05-07 01:34 51.15242 -114.24045 10681 ft 292 kts 255°
2026-05-07 01:34 51.14602 -114.27234 10903 ft 320 kts 255°
2026-05-07 01:34 51.13912 -114.30685 11518 ft 332 kts 255°
2026-05-07 01:35 51.13205 -114.34217 12400 ft 336 kts 256°
2026-05-07 01:35 51.12493 -114.37776 13353 ft 339 kts 256°
2026-05-07 01:35 51.11775 -114.41365 14245 ft 342 kts 256°
2026-05-07 01:35 51.11050 -114.44997 15106 ft 346 kts 256°
2026-05-07 01:36 51.10315 -114.48671 15977 ft 350 kts 256°
2026-05-07 01:36 51.09570 -114.52388 16879 ft 354 kts 256°
2026-05-07 01:36 51.08819 -114.56131 17774 ft 357 kts 256°
2026-05-07 01:36 51.08059 -114.59914 18563 ft 361 kts 256°
2026-05-07 01:37 51.07289 -114.63738 19314 ft 365 kts 256°
2026-05-07 01:37 51.06509 -114.67600 20077 ft 368 kts 256°
2026-05-07 01:37 51.05723 -114.71493 20834 ft 371 kts 256°
2026-05-07 01:37 51.04927 -114.75426 21564 ft 375 kts 255°
2026-05-07 01:38 51.04140 -114.79336 22362 ft 376 kts 256°
2026-05-07 01:38 51.03435 -114.83316 23326 ft 372 kts 258°
2026-05-07 01:38 51.02793 -114.87282 24147 ft 370 kts 258°
2026-05-07 01:38 51.02158 -114.91322 24407 ft 384 kts 259°
2026-05-07 01:39 51.01503 -114.95499 24770 ft 393 kts 258°
2026-05-07 01:39 51.00832 -114.99736 25301 ft 397 kts 258°
2026-05-07 01:39 51.00149 -115.03996 25891 ft 399 kts 258°
2026-05-07 01:39 50.99456 -115.08279 26504 ft 401 kts 258°
2026-05-07 01:40 50.98755 -115.12576 27135 ft 401 kts 258°
2026-05-07 01:40 50.98056 -115.16838 27829 ft 398 kts 258°
2026-05-07 01:40 50.97368 -115.21021 28491 ft 394 kts 258°
2026-05-07 01:40 50.96676 -115.25215 29222 ft 391 kts 258°
2026-05-07 01:41 50.95988 -115.29375 29955 ft 389 kts 258°
2026-05-07 01:41 50.95302 -115.33514 30587 ft 386 kts 259°
2026-05-07 01:41 50.94621 -115.37622 31233 ft 383 kts 259°
2026-05-07 01:41 50.93949 -115.41653 31874 ft 380 kts 259°
2026-05-07 01:42 50.93275 -115.45696 32420 ft 381 kts 259°
2026-05-07 01:42 50.92589 -115.49813 32650 ft 388 kts 259°
2026-05-07 01:42 50.91894 -115.53974 32882 ft 394 kts 259°
2026-05-07 01:42 50.91194 -115.58165 33119 ft 400 kts 259°
2026-05-07 01:43 50.90476 -115.62430 33531 ft 401 kts 259°
2026-05-07 01:43 50.89755 -115.66686 34073 ft 397 kts 259°
2026-05-07 01:43 50.89039 -115.70902 34468 ft 397 kts 259°
2026-05-07 01:43 50.88322 -115.75128 34754 ft 399 kts 259°
2026-05-07 01:44 50.87600 -115.79365 35205 ft 395 kts 259°
2026-05-07 01:44 50.86886 -115.83546 35587 ft 395 kts 260°
2026-05-07 01:44 50.86162 -115.87801 35489 ft 403 kts 260°
2026-05-07 01:45 50.84701 -115.96315 35481 ft 397 kts 259°
2026-05-07 01:45 50.83256 -116.04686 35464 ft 388 kts 260°
2026-05-07 01:45 50.82552 -116.08734 35457 ft 373 kts 260°
2026-05-07 01:46 50.81876 -116.12613 35458 ft 359 kts 260°
2026-05-07 01:46 50.81233 -116.16307 35440 ft 345 kts 260°
2026-05-07 01:46 50.80608 -116.19890 35469 ft 332 kts 261°
2026-05-07 01:46 50.80002 -116.23371 35192 ft 324 kts 261°
2026-05-07 01:47 50.79413 -116.26749 34967 ft 314 kts 261°
2026-05-07 01:47 50.78839 -116.30041 34719 ft 307 kts 261°
2026-05-07 01:47 50.78275 -116.33280 34523 ft 307 kts 261°
2026-05-07 01:47 50.77704 -116.36561 34292 ft 311 kts 261°
2026-05-07 01:48 50.77125 -116.39868 34067 ft 313 kts 261°
2026-05-07 01:48 50.76541 -116.43163 33752 ft 309 kts 261°
2026-05-07 01:48 50.75897 -116.46423 33508 ft 316 kts 257°
2026-05-07 01:48 50.75142 -116.49734 33261 ft 333 kts 256°
2026-05-07 01:49 50.74320 -116.53192 33295 ft 339 kts 255°
2026-05-07 01:49 50.72622 -116.60276 33585 ft 346 kts 256°
2026-05-07 01:49 50.71785 -116.63766 34164 ft 335 kts 256°
2026-05-07 01:50 50.70964 -116.67204 34271 ft 335 kts 256°
2026-05-07 01:50 50.69308 -116.74236 34302 ft 348 kts 256°
2026-05-07 01:51 50.67606 -116.81460 34309 ft 360 kts 256°
2026-05-07 01:51 50.65831 -116.88964 34309 ft 371 kts 256°
2026-05-07 01:51 50.64917 -116.92820 34070 ft 383 kts 256°
2026-05-07 01:52 50.63974 -116.96814 33531 ft 389 kts 255°
2026-05-07 01:52 50.63033 -117.00743 32995 ft 378 kts 255°
2026-05-07 01:52 50.62115 -117.04553 32483 ft 367 kts 255°
2026-05-07 01:52 50.61221 -117.08261 31925 ft 357 kts 256°
2026-05-07 01:53 50.60352 -117.11874 31425 ft 349 kts 255°
2026-05-07 01:53 50.59500 -117.15422 30969 ft 346 kts 255°
2026-05-07 01:53 50.58646 -117.18992 30517 ft 351 kts 255°
2026-05-07 01:53 50.57777 -117.22625 30050 ft 355 kts 254°
2026-05-07 01:54 50.56906 -117.26247 29525 ft 352 kts 254°
2026-05-07 01:54 50.56042 -117.29825 28984 ft 348 kts 254°
2026-05-07 01:54 50.55183 -117.33373 28463 ft 345 kts 253°
2026-05-07 01:54 50.54331 -117.36893 27958 ft 343 kts 253°
2026-05-07 01:55 50.53481 -117.40394 27432 ft 342 kts 253°
2026-05-07 01:55 50.52646 -117.43834 26924 ft 339 kts 253°
2026-05-07 01:55 50.51806 -117.47291 26442 ft 338 kts 254°
2026-05-07 01:55 50.50967 -117.50738 25962 ft 338 kts 253°
2026-05-07 01:56 50.50125 -117.54187 25501 ft 338 kts 253°
2026-05-07 01:56 50.49285 -117.57629 25018 ft 337 kts 253°
2026-05-07 01:56 50.48444 -117.61065 24582 ft 337 kts 252°
2026-05-07 01:56 50.47605 -117.64482 24125 ft 334 kts 252°
2026-05-07 01:57 50.46775 -117.67864 23629 ft 328 kts 252°
2026-05-07 01:57 50.45952 -117.71208 22869 ft 328 kts 252°
2026-05-07 01:57 50.45131 -117.74537 22107 ft 326 kts 252°
2026-05-07 01:57 50.44314 -117.77840 21464 ft 322 kts 252°
2026-05-07 01:58 50.43509 -117.81082 20860 ft 317 kts 252°
2026-05-07 01:58 50.42717 -117.84291 20243 ft 314 kts 252°
2026-05-07 01:58 50.41932 -117.87466 19645 ft 311 kts 252°
2026-05-07 01:58 50.41151 -117.90613 19053 ft 308 kts 252°
2026-05-07 01:59 50.40379 -117.93721 18474 ft 304 kts 252°
2026-05-07 01:59 50.39623 -117.96766 17841 ft 302 kts 252°
2026-05-07 01:59 50.38852 -117.99861 17166 ft 300 kts 252°
2026-05-07 01:59 50.38105 -118.02855 16553 ft 297 kts 252°
2026-05-07 02:00 50.37354 -118.05863 15963 ft 295 kts 252°
2026-05-07 02:00 50.36603 -118.08865 15334 ft 291 kts 252°
2026-05-07 02:00 50.35867 -118.11806 14525 ft 297 kts 251°
2026-05-07 02:00 50.35106 -118.14846 13668 ft 302 kts 251°
2026-05-07 02:01 50.34333 -118.17930 12737 ft 306 kts 251°
2026-05-07 02:01 50.33550 -118.21042 11826 ft 309 kts 251°
2026-05-07 02:01 50.32759 -118.24183 11039 ft 309 kts 251°
2026-05-07 02:01 50.31989 -118.27244 10640 ft 296 kts 250°
2026-05-07 02:02 50.31239 -118.30203 10213 ft 288 kts 251°
2026-05-07 02:02 50.30513 -118.33067 9797 ft 279 kts 251°
2026-05-07 02:02 50.29815 -118.35860 9357 ft 271 kts 253°
2026-05-07 02:02 50.29228 -118.38618 8921 ft 265 kts 255°
2026-05-07 02:03 50.28694 -118.41315 8848 ft 265 kts 255°
2026-05-07 02:03 50.28150 -118.44081 8792 ft 265 kts 256°
2026-05-07 02:04 50.27590 -118.46932 8800 ft 267 kts 255°
2026-05-07 02:04 50.27042 -118.49712 8799 ft 269 kts 255°
2026-05-07 02:04 50.26492 -118.52465 8787 ft 258 kts 255°
2026-05-07 02:04 50.25973 -118.55053 8797 ft 241 kts 255°
2026-05-07 02:05 50.25486 -118.57478 8786 ft 229 kts 255°
2026-05-07 02:05 50.25016 -118.59819 8790 ft 222 kts 255°
2026-05-07 02:05 50.24555 -118.62113 8763 ft 224 kts 255°
2026-05-07 02:05 50.24079 -118.64486 8624 ft 237 kts 255°
2026-05-07 02:06 50.23577 -118.66983 8477 ft 248 kts 255°
2026-05-07 02:06 50.23061 -118.69532 8539 ft 245 kts 255°
2026-05-07 02:06 50.22541 -118.72103 8627 ft 250 kts 256°
2026-05-07 02:06 50.22021 -118.74669 8717 ft 252 kts 255°
2026-05-07 02:07 50.21493 -118.77266 8829 ft 250 kts 255°
2026-05-07 02:07 50.20492 -118.82165 8977 ft 231 kts 255°
2026-05-07 02:07 50.20010 -118.84522 9002 ft 228 kts 256°
2026-05-07 02:08 50.19522 -118.86920 8894 ft 236 kts 255°
2026-05-07 02:08 50.19022 -118.89378 8862 ft 251 kts 256°
2026-05-07 02:08 50.18471 -118.92095 8823 ft 266 kts 256°
2026-05-07 02:08 50.17912 -118.94813 8619 ft 258 kts 256°
2026-05-07 02:09 50.17378 -118.97396 8429 ft 244 kts 256°
2026-05-07 02:09 50.17237 -118.99898 8231 ft 225 kts 284°
2026-05-07 02:09 50.17733 -119.02152 8061 ft 216 kts 291°
2026-05-07 02:09 50.18293 -119.04265 7941 ft 214 kts 294°
2026-05-07 02:10 50.19031 -119.06251 7814 ft 212 kts 316°
2026-05-07 02:10 50.20366 -119.07282 8267 ft 224 kts 348°
2026-05-07 02:10 50.21967 -119.07450 8923 ft 233 kts 354°
2026-05-07 02:10 50.23542 -119.07489 9329 ft 225 kts 355°
2026-05-07 02:11 50.25149 -119.07504 9405 ft 234 kts 355°
2026-05-07 02:11 50.26745 -119.07530 9386 ft 222 kts 355°
2026-05-07 02:11 50.28228 -119.07556 9217 ft 205 kts 355°
2026-05-07 02:11 50.29600 -119.07571 9050 ft 188 kts 355°
2026-05-07 02:12 50.30835 -119.07562 8990 ft 174 kts 355°
2026-05-07 02:12 50.32042 -119.07544 8982 ft 174 kts 355°
2026-05-07 02:12 50.33249 -119.07518 9013 ft 174 kts 355°
2026-05-07 02:12 50.34447 -119.07681 8961 ft 170 kts 333°
2026-05-07 02:13 50.35461 -119.08522 8976 ft 167 kts 326°
2026-05-07 02:13 50.36441 -119.09454 9011 ft 165 kts 325°
2026-05-07 02:13 50.37439 -119.10417 8990 ft 169 kts 325°
2026-05-07 02:13 50.38435 -119.11380 8985 ft 167 kts 326°
2026-05-07 02:14 50.39395 -119.12315 8975 ft 163 kts 325°
2026-05-07 02:14 50.40350 -119.13245 8983 ft 160 kts 325°
2026-05-07 02:14 50.41300 -119.14165 9011 ft 164 kts 325°
2026-05-07 02:14 50.42290 -119.15129 8988 ft 168 kts 326°
2026-05-07 02:15 50.43272 -119.16094 8985 ft 166 kts 325°
2026-05-07 02:15 50.44248 -119.17053 8974 ft 165 kts 325°
2026-05-07 02:15 50.45212 -119.17998 8978 ft 162 kts 325°
2026-05-07 02:15 50.46160 -119.18926 8985 ft 162 kts 326°
2026-05-07 02:16 50.47132 -119.19886 8993 ft 167 kts 325°
2026-05-07 02:16 50.47973 -119.21057 8965 ft 164 kts 296°
2026-05-07 02:16 50.48122 -119.22787 8990 ft 164 kts 268°
2026-05-07 02:16 50.47962 -119.24596 8990 ft 169 kts 266°
2026-05-07 02:17 50.47771 -119.26440 8992 ft 172 kts 265°
2026-05-07 02:17 50.47579 -119.28313 8998 ft 176 kts 265°
2026-05-07 02:17 50.47388 -119.30194 8976 ft 172 kts 265°
2026-05-07 02:17 50.47200 -119.32020 8969 ft 168 kts 265°
2026-05-07 02:18 50.47013 -119.33826 8971 ft 168 kts 265°
2026-05-07 02:18 50.46818 -119.35747 9004 ft 183 kts 265°
2026-05-07 02:18 50.46627 -119.37653 8990 ft 174 kts 265°
2026-05-07 02:18 50.46222 -119.39380 8958 ft 171 kts 232°
2026-05-07 02:19 50.45182 -119.40372 9029 ft 182 kts 207°
2026-05-07 02:19 50.44014 -119.41044 8954 ft 173 kts 203°
2026-05-07 02:19 50.42886 -119.41503 8661 ft 161 kts 199°
2026-05-07 02:19 50.41803 -119.41907 8173 ft 161 kts 200°
2026-05-07 02:20 50.40705 -119.42322 7659 ft 163 kts 199°
2026-05-07 02:20 50.39614 -119.42730 7158 ft 163 kts 199°
2026-05-07 02:20 50.38482 -119.42712 6666 ft 165 kts 174°
2026-05-07 02:20 50.37371 -119.42624 6288 ft 154 kts 189°
2026-05-07 02:21 50.36323 -119.42860 5877 ft 154 kts 199°
2026-05-07 02:21 50.35258 -119.43312 5568 ft 163 kts 202°
2026-05-07 02:21 50.34144 -119.43775 5332 ft 168 kts 195°
2026-05-07 02:21 50.33005 -119.43825 5234 ft 163 kts 182°
2026-05-07 02:22 50.31882 -119.43709 5156 ft 159 kts 182°
2026-05-07 02:22 50.30795 -119.43569 5009 ft 153 kts 179°
2026-05-07 02:22 50.30083 -119.43462 4888 ft 158 kts 184°
2026-05-07 02:22 50.28620 -119.43261 4779 ft 159 kts 177°
2026-05-07 02:23 50.27522 -119.42945 4620 ft 163 kts 176°
2026-05-07 02:23 50.26391 -119.42634 4473 ft 165 kts 176°
2026-05-07 02:23 50.25265 -119.42318 4258 ft 164 kts 175°
2026-05-07 02:23 50.24141 -119.42020 4059 ft 164 kts 177°
2026-05-07 02:24 50.23398 -119.41886 3924 ft 160 kts 186°
2026-05-07 02:24 50.22287 -119.41878 3724 ft 159 kts 189°
2026-05-07 02:24 50.21219 -119.42132 3513 ft 153 kts 203°
2026-05-07 02:24 50.19899 -119.42875 3508 ft 155 kts 201°
2026-05-07 02:25 50.18840 -119.43280 3804 ft 158 kts 201°
2026-05-07 02:25 50.17816 -119.43736 3866 ft 150 kts 199°
2026-05-07 02:25 50.17147 -119.43974 3879 ft 144 kts 199°
2026-05-07 02:25 50.16166 -119.44349 3742 ft 153 kts 196°
2026-05-07 02:26 50.15123 -119.44490 3823 ft 146 kts 186°
2026-05-07 02:26 50.14113 -119.44564 3794 ft 143 kts 190°
2026-05-07 02:26 50.13106 -119.44502 3766 ft 152 kts 172°
2026-05-07 02:26 50.12120 -119.44071 3948 ft 141 kts 166°
2026-05-07 02:27 50.11148 -119.43768 3774 ft 148 kts 176°
2026-05-07 02:27 50.10140 -119.43576 3741 ft 146 kts 179°
2026-05-07 02:27 50.09125 -119.43443 3637 ft 147 kts 176°
2026-05-07 02:27 50.08110 -119.42977 3376 ft 157 kts 161°
2026-05-07 02:28 50.07191 -119.42182 3207 ft 148 kts 146°
2026-05-07 02:28 50.06366 -119.41184 3071 ft 149 kts 147°
2026-05-07 02:28 50.05459 -119.40336 2734 ft 155 kts 157°
2026-05-07 02:28 50.04475 -119.39749 2527 ft 144 kts 166°
2026-05-07 02:29 50.03493 -119.39555 2394 ft 144 kts 176°
2026-05-07 02:29 50.02485 -119.39287 2361 ft 149 kts 172°
2026-05-07 02:29 50.02163 -119.39195 2320 ft 147 kts 171°
2026-05-07 02:30 50.01233 -119.39002 2144 ft 147 kts 174°
2026-05-07 02:30 50.00263 -119.38680 2076 ft 145 kts 168°
2026-05-07 02:30 49.99335 -119.38125 1996 ft 139 kts 167°
2026-05-07 02:30 49.98440 -119.37909 1917 ft 124 kts 185°
2026-05-07 02:31 49.97600 -119.37909 1640 ft 119 kts 185°
2026-05-07 02:31 49.96784 -119.37892 1468 ft 115 kts 184°
2026-05-07 02:31 49.96033 -119.37834 1421 ft 98 kts 175°
2026-05-07 02:31 49.95468 -119.37754 1416 ft 64 kts 176°
2026-05-07 02:32 49.95139 -119.37711 1419 ft 33 kts 175°
2026-05-07 02:32 49.94927 -119.37682 1421 ft 29 kts 175°
2026-05-07 02:32 49.94780 -119.37700 1420 ft 17 kts 239°
2026-05-07 02:32 49.94822 -119.37807 1420 ft 11 kts 337°
2026-05-07 02:33 49.94898 -119.37821 1420 ft 11 kts 355°
2026-05-07 02:33 49.94939 -119.37826 1419 ft 0 kts 354°
2026-05-07 02:33 49.94940 -119.37826 1419 ft 1 kts 350°
2026-05-07 02:33 49.94965 -119.37866 1419 ft 7 kts 304°
2026-05-07 02:34 49.94977 -119.37881 1419 ft 1 kts 330°
2026-05-07 02:34 49.94986 -119.37888 1419 ft 1 kts 334°
2026-05-07 02:34 49.95020 -119.37914 1419 ft 6 kts 307°
2026-05-07 02:34 49.95040 -119.37968 1419 ft 3 kts 299°
2026-05-07 02:35 49.95056 -119.38000 1419 ft 3 kts 311°
2026-05-07 02:35 49.95062 -119.38011 1419 ft 0 kts 311°